Location: Newark
(43.0000°N, 1.6781°W)
Time: 09:51:43
(UTC+00:00)

Vanguard 1 - All Passes

Search period start: 07 October 2022 00:00
Search period end: 17 October 2022 00:00
Orbit: 649 x 3832 km, 34.2° (Epoch: 06 October)

Date Brightness Start Highest point End Pass type
(mag) Time Alt. Az. Time Alt. Az. Time Alt. Az.
07 Oct - 10:14:49 10° SSW 10:32:33 30° SE 10:45:59 10° E daylight
07 Oct - 12:36:34 10° SW 12:56:20 51° SSE 13:08:13 10° E daylight
07 Oct - 15:02:50 10° WSW 15:19:08 57° S 15:27:55 10° ESE daylight
07 Oct - 17:29:37 10° W 17:39:43 34° SSW 17:45:50 10° SSE daylight
08 Oct - 08:21:00 10° SSE 08:29:51 13° SE 08:38:04 10° ESE daylight
08 Oct - 10:33:55 10° SSW 10:53:16 36° SSE 11:07:22 10° E daylight
08 Oct - 12:57:11 10° WSW 13:17:10 55° S 13:28:52 10° E daylight
08 Oct - 15:23:59 10° W 15:39:46 55° SSW 15:48:18 10° ESE daylight
08 Oct - 17:51:00 10° W 17:59:52 27° SW 18:05:35 10° SSE visible
09 Oct - 08:36:31 10° S 08:50:19 19° SE 09:02:35 10° E daylight
09 Oct - 10:53:32 10° SW 11:14:03 43° SSE 11:28:28 10° E daylight
09 Oct - 13:18:02 10° WSW 13:38:00 59° S 13:49:29 10° E daylight
09 Oct - 15:45:13 10° W 16:00:21 51° SSW 16:08:37 10° SE daylight
09 Oct - 18:12:41 10° W 18:19:55 20° SW 18:24:57 10° S visible
10 Oct - 08:54:05 10° S 09:10:49 26° SE 09:25:15 10° E daylight
10 Oct - 11:13:33 10° SW 11:34:51 49° SSE 11:49:22 10° E daylight
10 Oct - 13:39:02 10° WSW 13:58:49 61° S 14:10:02 10° ESE daylight
10 Oct - 16:06:29 10° W 16:20:48 46° SSW 16:28:48 10° SE daylight
10 Oct - 18:35:02 10° WSW 18:39:48 14° SW 18:43:34 10° SSW visible
11 Oct - 09:12:38 10° SSW 09:31:22 32° SE 09:47:07 10° E daylight
11 Oct - 11:33:54 10° SW 11:55:42 54° SSE 12:10:10 10° E daylight
11 Oct - 14:00:10 10° WSW 14:19:38 61° S 14:30:31 10° ESE daylight
11 Oct - 16:27:48 10° W 16:41:07 39° SSW 16:48:49 10° SE daylight
12 Oct - 07:18:57 10° SSE 07:28:49 14° SE 07:38:29 10° ESE daylight
12 Oct - 09:31:48 10° SSW 09:52:00 39° SSE 10:08:31 10° E daylight
12 Oct - 11:54:30 10° WSW 12:16:36 59° SSE 12:30:53 10° E daylight
12 Oct - 14:21:22 10° W 14:40:21 59° SSW 14:50:56 10° ESE daylight
12 Oct - 16:49:15 10° W 17:01:18 32° SW 17:08:37 10° SSE daylight
13 Oct - 07:34:55 10° S 07:49:04 21° SE 08:02:47 10° E daylight
13 Oct - 09:51:27 10° SW 10:12:42 45° SSE 10:29:40 10° E daylight
13 Oct - 12:15:20 10° WSW 12:37:32 62° S 12:51:32 10° E daylight
13 Oct - 14:42:38 10° W 15:01:00 55° SSW 15:11:16 10° ESE daylight
13 Oct - 17:10:56 10° W 17:21:19 25° SW 17:28:04 10° S daylight
14 Oct - 07:52:40 10° S 08:09:23 27° SE 08:25:28 10° E daylight
14 Oct - 10:11:27 10° SW 10:33:29 51° SSE 10:50:38 10° E daylight
14 Oct - 12:36:19 10° WSW 12:58:26 64° S 13:12:08 10° ESE daylight
14 Oct - 15:03:57 10° W 15:21:32 50° SSW 15:31:28 10° SE daylight
14 Oct - 17:33:03 10° W 17:41:12 19° SW 17:47:01 10° S daylight
15 Oct - 08:11:18 10° SSW 08:29:46 34° SE 08:47:22 10° E daylight
15 Oct - 10:31:46 10° SW 10:54:21 57° SSE 11:11:30 10° E daylight
15 Oct - 12:57:26 10° W 13:19:19 64° S 13:32:40 10° ESE daylight
15 Oct - 15:25:20 10° W 15:41:54 44° SSW 15:51:31 10° SE daylight
15 Oct - 17:56:16 10° WSW 18:00:57 13° SW 18:04:47 10° SSW visible
16 Oct - 06:18:15 10° SSE 06:27:40 14° SE 06:37:28 10° E daylight
16 Oct - 08:30:31 10° SSW 08:50:14 40° SE 09:08:51 10° E daylight
16 Oct - 10:52:20 10° WSW 11:15:16 61° SSE 11:32:17 10° E daylight
16 Oct - 13:18:37 10° W 13:40:09 62° S 13:53:09 10° ESE daylight
16 Oct - 15:46:48 10° W 16:02:08 37° SW 16:11:22 10° SSE daylight
